GW2280 Weather Reports


time (UTC)temp
F
wind
direction
speed
knots
gust
knots
rain 1hr
in
rain 24hr
in
rain mn
in
humidity
%
barometer
mb
20260506035011 61 213 4.3 9.6 0.00 0.00 0.00 80 1010.2
20260506034530 61 200 4.3 10.4 0.00 0.00 0.00 79 1010.1
20260506034014 61 207 5.2 14.8 0.00 0.00 0.00 79 1010.0
20260506033514 61 193 6.1 14.8 0.00 0.00 0.00 79 1010.2
20260506033029 61 226 6.1 14.8 0.00 0.00 0.00 79 1010.1
20260506032512 61 175 7.8 13.9 0.00 0.00 0.00 80 1009.9
20260506032014 61 194 6.1 13.0 0.00 0.00 0.00 79 1010.1
20260506031534 61 198 5.2 10.4 0.00 0.00 0.00 80 1010.1
20260506031052 61 201 5.2 11.3 0.00 0.00 0.00 80 1010.1
20260506030511 61 205 4.3 11.3 0.00 0.00 0.00 79 1010.1
20260506030032 61 227 5.2 9.6 0.00 0.00 0.00 79 1010.1
20260506025516 61 207 4.3 8.7 0.00 0.00 0.00 79 1009.9
20260506025011 61 225 4.3 8.7 0.00 0.00 0.00 79 1009.9
20260506024535 61 231 3.5 8.7 0.00 0.00 0.00 78 1009.9
20260506024015 62 216 4.3 8.7 0.00 0.00 0.00 78 1010.0
20260506023513 62 206 4.3 8.7 0.00 0.00 0.00 78 1010.0
20260506023033 62 188 4.3 10.4 0.00 0.00 0.00 78 1010.1
20260506022513 62 225 4.3 10.4 0.00 0.00 0.00 78 1010.1
20260506022012 62 249 4.3 11.3 0.00 0.00 0.00 78 1010.2
20260506021528 62 242 4.3 11.3 0.00 0.00 0.00 78 1010.4
20260506021012 62 226 6.1 11.3 0.00 0.00 0.00 78 1010.4
20260506020511 62 237 5.2 10.4 0.00 0.00 0.00 78 1010.4
20260506020031 62 246 5.2 13.0 0.00 0.00 0.00 78 1010.2
20260506015515 62 269 5.2 13.0 0.00 0.00 0.00 78 1010.2
20260506015012 62 206 5.2 8.7 0.00 0.00 0.00 78 1010.3
20260506014532 62 252 5.2 8.7 0.00 0.00 0.00 78 1010.3
20260506014013 63 279 4.3 8.7 0.00 0.00 0.00 77 1010.4
20260506013513 63 270 3.5 8.7 0.00 0.00 0.00 75 1010.4
20260506013029 64 238 3.5 10.4 0.00 0.00 0.00 76 1010.4
20260506012512 64 255 4.3 13.0 0.00 0.00 0.00 75 1010.3
20260506012015 65 269 6.1 13.0 0.00 0.00 0.00 73 1010.3
20260506011530 65 271 6.1 11.3 0.00 0.00 0.00 70 1010.4
20260506011011 65 258 6.1 10.4 0.00 0.00 0.00 70 1010.5
20260506010514 65 251 5.2 9.6 0.00 0.00 0.00 69 1010.4
20260506010034 65 253 3.5 12.2 0.00 0.00 0.00 69 1010.4
20260506005513 65 237 5.2 12.2 0.00 0.00 0.00 69 1010.3
20260506005015 65 271 7.8 12.2 0.00 0.00 0.00 70 1010.1
20260506004552 65 272 4.3 8.7 0.00 0.00 0.00 71 1010.0
20260506004012 65 246 4.3 8.7 0.00 0.00 0.00 70 1010.0
20260506003512 65 244 3.5 8.7 0.00 0.00 0.00 70 1010.1
20260506003031 66 250 3.5 8.7 0.00 0.00 0.00 70 1009.9
20260506002512 66 250 4.3 8.7 0.00 0.00 0.00 68 1009.8
20260506002012 66 201 3.5 8.7 0.00 0.00 0.00 68 1009.8
20260506001530 66 254 4.3 15.6 0.00 0.00 0.00 68 1009.7
20260506001012 66 243 3.5 15.6 0.00 0.00 0.00 68 1009.6
20260506000513 65 250 7.0 13.0 0.00 0.00 0.00 69 1009.5
20260506000028 65 277 7.0 13.0 0.00 0.00 0.00 69 1009.5
20260505235513 65 261 3.5 8.7 0.00 0.00 0.00 69 1009.4
20260505235017 66 224 3.5 7.0 0.00 0.00 0.00 69 1009.3
20260505234601 66 217 1.7 7.0 0.00 0.00 0.00 68 1009.0
20260505234011 66 0 1.7 7.0 0.00 0.00 0.00 68 1008.9
20260505233512 66 0 2.6 8.7 0.00 0.00 0.00 68 1008.7
20260505233032 66 294 2.6 13.0 0.00 0.00 0.00 68 1008.5
20260505232512 66 311 3.5 13.0 0.00 0.00 0.00 67 1008.3
20260505232011 66 283 5.2 9.6 0.00 0.00 0.00 68 1008.3
20260505231535 67 241 1.7 13.0 0.00 0.00 0.00 67 1008.1
20260505231012 67 292 4.3 13.0 0.00 0.00 0.00 66 1008.1
20260505230518 67 321 4.3 14.8 0.00 0.00 0.00 66 1008.1
20260505230030 67 274 5.2 15.6 0.00 0.00 0.00 66 1008.1
20260505225513 67 336 8.7 22.6 0.00 0.00 0.00 65 1008.2
20260505225014 68 309 8.7 26.9 0.00 0.00 0.00 64 1008.3
20260505224534 68 258 14.8 30.4 0.00 0.00 0.00 62 1008.3
20260505224016 70 360 15.6 30.4 0.00 0.00 0.00 60 1008.3
20260505223512 72 311 13.0 29.5 0.00 0.00 0.00 54 1008.0
20260505223029 76 277 14.8 29.5 0.00 0.00 0.00 47 1007.8
20260505222513 77 273 12.2 31.3 0.00 0.00 0.00 40 1007.1
20260505222011 77 211 12.2 32.2 0.00 0.00 0.00 39 1006.5
20260505221529 77 239 13.0 32.2 0.00 0.00 0.00 38 1006.3
20260505221011 78 218 11.3 27.8 0.00 0.00 0.00 38 1006.4
20260505220512 77 237 9.6 27.8 0.00 0.00 0.00 38 1006.3
20260505220030 77 202 9.6 27.8 0.00 0.00 0.00 38 1006.1
20260505215512 76 224 13.9 27.8 0.00 0.00 0.00 39 1006.3
20260505215014 75 238 9.6 20.9 0.00 0.00 0.00 41 1005.9
20260505214538 75 246 6.1 15.6 0.00 0.00 0.00 46 1006.1
20260505214011 75 227 7.0 15.6 0.00 0.00 0.00 48 1006.1
20260505213516 76 157 6.1 13.9 0.00 0.00 0.00 47 1006.0
20260505213029 77 195 6.1 16.5 0.00 0.00 0.00 46 1005.9
20260505212514 77 167 7.0 16.5 0.00 0.00 0.00 46 1005.8
20260505212012 77 236 3.5 13.9 0.00 0.00 0.00 46 1005.9
20260505211530 77 196 7.0 20.9 0.00 0.00 0.00 45 1005.9
20260505211015 78 212 7.0 20.9 0.00 0.00 0.00 45 1005.7
20260505210517 78 182 7.8 20.9 0.00 0.00 0.00 45 1005.7
20260505210031 78 156 5.2 20.9 0.00 0.00 0.00 45 1005.7
20260505205512 78 169 9.6 20.9 0.00 0.00 0.00 46 1005.7
20260505205012 78 176 7.0 18.2 0.00 0.00 0.00 45 1005.5
20260505204530 78 188 7.8 16.5 0.00 0.00 0.00 45 1005.7
20260505204012 79 172 7.8 22.6 0.00 0.00 0.00 44 1005.7
20260505203513 80 182 6.1 22.6 0.00 0.00 0.00 43 1005.6
20260505203029 81 245 9.6 22.6 0.00 0.00 0.00 38 1005.7
20260505202514 81 188 7.0 26.1 0.00 0.00 0.00 39 1005.7
20260505202011 81 237 13.9 30.4 0.00 0.00 0.00 36 1005.7
20260505201532 81 223 13.0 30.4 0.00 0.00 0.00 36 1005.7
20260505201013 81 212 13.0 24.3 0.00 0.00 0.00 36 1005.8
20260505200513 81 220 11.3 24.3 0.00 0.00 0.00 37 1005.8
20260505200035 81 214 13.0 24.3 0.00 0.00 0.00 38 1005.8
20260505195513 81 202 13.0 25.2 0.00 0.00 0.00 37 1006.0
20260505195012 81 271 12.2 25.2 0.00 0.00 0.00 38 1006.0
20260505194530 81 262 10.4 23.5 0.00 0.00 0.00 39 1006.1
20260505194011 80 229 9.6 28.7 0.00 0.00 0.00 39 1006.0
20260505193513 80 229 13.9 28.7 0.00 0.00 0.00 40 1006.1
20260505193030 80 262 12.2 26.9 0.00 0.00 0.00 39 1006.2
20260505192515 80 257 13.9 26.9 0.00 0.00 0.00 38 1006.2
20260505192012 79 209 14.8 26.9 0.00 0.00 0.00 39 1006.5
20260505191531 79 160 12.2 26.9 0.00 0.00 0.00 40 1006.4
20260505191017 79 221 12.2 26.9 0.00 0.00 0.00 40 1006.6
20260505190513 80 192 13.9 26.1 0.00 0.00 0.00 40 1006.4
20260505190031 79 227 9.6 21.7 0.00 0.00 0.00 41 1006.7
20260505185514 79 206 8.7 19.1 0.00 0.00 0.00 41 1006.9
20260505185016 79 238 7.8 23.5 0.00 0.00 0.00 41 1007.0
20260505184532 79 196 7.8 24.3 0.00 0.00 0.00 42 1007.1
20260505184014 80 125 7.8 24.3 0.00 0.00 0.00 41 1007.1
20260505183513 80 243 10.4 20.0 0.00 0.00 0.00 40 1007.1
20260505183043 81 164 8.7 26.9 0.00 0.00 0.00 39 1007.1
20260505182512 80 247 12.2 26.9 0.00 0.00 0.00 40 1007.1
20260505182014 80 234 13.9 26.1 0.00 0.00 0.00 39 1007.1
20260505181529 80 207 11.3 26.1 0.00 0.00 0.00 39 1007.1
20260505181015 81 179 12.2 26.1 0.00 0.00 0.00 38 1007.1
20260505180512 81 219 10.4 24.3 0.00 0.00 0.00 39 1007.2
20260505180032 82 199 10.4 28.7 0.00 0.00 0.00 38 1007.2
20260505175515 82 198 7.8 28.7 0.00 0.00 0.00 39 1007.3
20260505175014 81 300 12.2 25.2 0.00 0.00 0.00 38 1007.3
20260505174532 81 221 13.9 27.8 0.00 0.00 0.00 38 1007.5
20260505174011 80 219 11.3 27.8 0.00 0.00 0.00 41 1007.5
20260505173511 80 242 11.3 22.6 0.00 0.00 0.00 40 1007.6
20260505173038 80 204 12.2 21.7 0.00 0.00 0.00 41 1007.6
20260505172513 80 194 7.8 20.9 0.00 0.00 0.00 42 1007.5
20260505172013 80 180 10.4 20.9 0.00 0.00 0.00 41 1007.7
20260505171533 80 214 9.6 22.6 0.00 0.00 0.00 41 1007.9
20260505171012 79 265 11.3 22.6 0.00 0.00 0.00 42 1007.7
20260505170513 78 229 13.0 26.9 0.00 0.00 0.00 44 1007.9
20260505170035 78 227 12.2 26.9 0.00 0.00 0.00 42 1008.1
20260505165513 79 231 11.3 20.0 0.00 0.00 0.00 41 1008.2
20260505165013 79 251 7.0 24.3 0.00 0.00 0.00 43 1008.5
20260505164529 78 205 8.7 26.9 0.00 0.00 0.00 44 1008.4
20260505164013 78 223 14.8 26.9 0.00 0.00 0.00 43 1008.6
20260505163514 78 249 11.3 24.3 0.00 0.00 0.00 43 1008.9
20260505163027 77 222 14.8 24.3 0.00 0.00 0.00 43 1009.0
20260505162512 77 244 9.6 32.2 0.00 0.00 0.00 44 1009.1
20260505162012 77 211 12.2 32.2 0.00 0.00 0.00 44 1009.1
20260505161532 76 233 7.8 20.0 0.00 0.00 0.00 45 1009.2
20260505161013 76 236 11.3 21.7 0.00 0.00 0.00 46 1009.3
20260505160513 76 209 7.8 23.5 0.00 0.00 0.00 48 1009.4
20260505153030 73 212 6.1 20.0 0.00 0.00 0.00 48 1009.8
20260505152511 73 228 9.6 20.0 0.00 0.00 0.00 49 1010.0
20260505152012 73 225 6.1 17.4 0.00 0.00 0.00 50 1009.9
20260505151528 72 231 9.6 17.4 0.00 0.00 0.00 50 1010.1
20260505151011 72 191 9.6 15.6 0.00 0.00 0.00 50 1010.1
20260505150512 72 225 7.0 14.8 0.00 0.00 0.00 50 1010.0
20260505140517 65 216 7.0 14.8 0.00 0.00 0.00 58 1010.1
20260505125014 60 259 4.3 10.4 0.00 0.00 0.00 66 1010.3
20260505124543 59 360 6.1 13.0 0.00 0.00 0.00 66 1010.4
20260505124014 58 248 4.3 13.0 0.00 0.00 0.00 67 1010.3
20260505123520 58 282 4.3 13.9 0.00 0.00 0.00 67 1010.3
20260505123033 58 360 7.8 17.4 0.00 0.00 0.00 66 1010.2
20260505122513 58 360 7.8 17.4 0.00 0.00 0.00 66 1010.2
20260505122018 58 360 9.6 17.4 0.00 0.00 0.00 66 1010.0
20260505121532 58 317 7.0 13.9 0.00 0.00 0.00 67 1010.0
20260505121013 57 199 7.0 13.9 0.00 0.00 0.00 67 1009.8
20260505120513 56 209 5.2 12.2 0.00 0.00 0.00 68 1009.8
20260505120038 56 257 4.3 13.0 0.00 0.00 0.00 69 1009.9
20260505115513 55 215 6.1 13.0 0.00 0.00 0.00 69 1009.8
20260505115013 55 216 6.1 13.9 0.00 0.00 0.00 70 1009.9
20260505114531 54 213 7.0 13.9 0.00 0.00 0.00 71 1010.0
20260505114013 54 240 7.0 13.9 0.00 0.00 0.00 71 1009.9
20260505113514 53 0 5.2 13.0 0.00 0.00 0.00 72 1010.0
20260505113033 53 281 5.2 13.0 0.00 0.00 0.00 73 1010.1
20260505112510 53 215 7.8 13.0 0.00 0.00 0.00 73 1010.0
20260505112012 52 214 7.0 14.8 0.00 0.00 0.00 74 1010.1
20260505111532 52 246 7.0 13.9 0.00 0.00 0.00 74 1010.1
20260505111018 52 232 7.0 13.9 0.00 0.00 0.00 74 1010.1
20260505110512 51 213 7.0 14.8 0.00 0.00 0.00 75 1010.1
20260505102013 50 226 8.7 15.6 0.00 0.00 0.00 76 1010.0
20260505101538 50 229 8.7 15.6 0.00 0.00 0.00 76 1010.0
20260505101012 50 236 8.7 17.4 0.00 0.00 0.00 76 1009.9
20260505100516 50 206 8.7 17.4 0.00 0.00 0.00 76 1010.0
20260505100028 50 287 7.8 16.5 0.00 0.00 0.00 76 1009.9
20260505095512 50 250 9.6 16.5 0.00 0.00 0.00 75 1010.0
20260505095012 50 225 9.6 16.5 0.00 0.00 0.00 75 1009.9
20260505094532 50 233 10.4 16.5 0.00 0.00 0.00 75 1009.8
20260505094013 50 225 9.6 17.4 0.00 0.00 0.00 75 1009.9
20260505093515 51 232 8.7 17.4 0.00 0.00 0.00 74 1009.9
20260505093032 51 217 9.6 17.4 0.00 0.00 0.00 74 1009.9
20260505092515 51 202 8.7 19.1 0.00 0.00 0.00 74 1010.0
20260505092014 51 215 10.4 19.1 0.00 0.00 0.00 74 1009.9
20260505091530 50 243 10.4 18.2 0.00 0.00 0.00 74 1009.9
20260505091014 50 232 8.7 16.5 0.00 0.00 0.00 74 1009.8
20260505090512 51 233 7.8 13.9 0.00 0.00 0.00 73 1009.9
20260505090029 51 223 8.7 13.9 0.00 0.00 0.00 73 1009.9
20260505085512 51 200 7.0 20.0 0.00 0.00 0.00 73 1009.9
20260505085016 51 261 7.8 20.0 0.00 0.00 0.00 72 1010.0
20260505084540 51 221 8.7 20.0 0.00 0.00 0.00 72 1010.0
20260505084012 51 237 7.8 14.8 0.00 0.00 0.00 72 1009.9
20260505083511 51 216 8.7 14.8 0.00 0.00 0.00 72 1010.1
20260505083029 51 215 7.0 13.9 0.00 0.00 0.00 72 1010.2
20260505082512 51 268 7.0 13.9 0.00 0.00 0.00 71 1010.3
20260505082010 52 254 7.8 13.9 0.00 0.00 0.00 71 1010.2
20260505081532 52 227 8.7 13.9 0.00 0.00 0.00 71 1010.4
20260505081011 52 222 7.8 14.8 0.00 0.00 0.00 70 1010.4
20260505080514 52 234 8.7 15.6 0.00 0.00 0.00 70 1010.3
20260505080030 52 259 7.8 15.6 0.00 0.00 0.00 70 1010.4
20260505075511 52 282 7.8 15.6 0.00 0.00 0.00 69 1010.4
20260505075015 53 233 8.7 15.6 0.00 0.00 0.00 69 1010.4
20260505074535 53 236 8.7 15.6 0.00 0.00 0.00 69 1010.4
20260505074012 53 217 9.6 14.8 0.00 0.00 0.00 69 1010.4
20260505073511 53 236 7.8 14.8 0.00 0.00 0.00 68 1010.5
20260505073039 53 263 7.8 14.8 0.00 0.00 0.00 68 1010.5
20260505072511 53 276 8.7 15.6 0.00 0.00 0.00 68 1010.4
20260505072010 53 258 7.8 15.6 0.00 0.00 0.00 68 1010.4
20260505071529 53 243 9.6 15.6 0.00 0.00 0.00 68 1010.3
20260505071015 53 246 8.7 17.4 0.00 0.00 0.00 68 1010.3
20260505070512 53 234 8.7 18.2 0.00 0.00 0.00 68 1010.3
20260505070039 53 299 10.4 20.0 0.00 0.00 0.00 68 1010.3
20260505065510 53 263 10.4 20.0 0.00 0.00 0.00 68 1010.4
20260505065011 53 344 9.6 19.1 0.00 0.00 0.00 68 1010.4
20260505064530 53 229 9.6 19.1 0.00 0.00 0.00 67 1010.4
20260505064012 53 210 10.4 19.1 0.00 0.00 0.00 67 1010.3
20260505063513 53 236 10.4 21.7 0.00 0.00 0.00 67 1010.4
20260505063031 53 262 10.4 21.7 0.00 0.00 0.00 67 1010.2
20260505062512 53 228 11.3 20.0 0.00 0.00 0.00 67 1010.3
20260505062011 53 271 11.3 20.0 0.00 0.00 0.00 67 1010.3
20260505061538 53 253 9.6 20.0 0.00 0.00 0.00 67 1010.3
20260505061011 53 219 10.4 21.7 0.00 0.00 0.00 67 1010.3
20260505060517 53 360 11.3 21.7 0.00 0.00 0.00 67 1010.3
20260505060030 53 223 7.8 16.5 0.00 0.00 0.00 67 1010.3
20260505055511 53 241 9.6 18.2 0.00 0.00 0.00 67 1010.3
20260505055013 54 223 8.7 18.2 0.00 0.00 0.00 66 1010.4
20260505054536 54 279 8.7 20.9 0.00 0.00 0.00 66 1010.5
20260505054014 54 268 7.8 20.9 0.00 0.00 0.00 66 1010.5
20260505053516 54 240 11.3 17.4 0.00 0.00 0.00 66 1010.4
20260505053033 54 286 8.7 17.4 0.00 0.00 0.00 65 1010.4
20260505052513 54 233 8.7 19.1 0.00 0.00 0.00 65 1010.3
20260505052011 54 250 8.7 19.1 0.00 0.00 0.00 65 1010.4
20260505051532 54 256 12.2 19.1 0.00 0.00 0.00 65 1010.4
20260505051011 55 243 12.2 21.7 0.00 0.00 0.00 64 1010.6
20260505050514 55 221 9.6 21.7 0.00 0.00 0.00 64 1010.5
20260505041548 56 198 9.6 20.0 0.00 0.00 0.00 62 1010.3
20260505041013 56 229 9.6 20.0 0.00 0.00 0.00 62 1010.3
20260505040511 56 211 10.4 20.9 0.00 0.00 0.00 61 1010.3
20260505040038 56 199 10.4 20.9 0.00 0.00 0.00 62 1010.3
20260505035516 56 202 9.6 20.9 0.00 0.00 0.00 61 1010.1